Last 30 Days

Upper Lake

Daily Data | America/Los_Angeles
as of 5/5/26 9:15 PM PDT
Date Daily Max Temp (°F) Time of Max Temp Daily Min Temp (°F) Time of Min Temp Daily Rain (In) Month Precip (In) Season Precip (In) Wind Spd (mph) Daily Max Wind (mph) Time of Max Wind Max Wind Dir (°) Dew Pt (°F) Daily Max RH (%) Daily Min RH (%) Hrs <= 32F (hrs) Hrs <= 28F (hrs) Daily Leaf Wet (Hrs) Degree Hrs (hrs) Hrs 70-85F (hrs) Hrs > 95F (hrs) Powdery Mildew Stress (pts) Storm Total (In) Daily Max Rain Intensity (In/Hr) Time of Max Rain Intensity Max 1 Min Rain (In) Max 1 Min Rain Time Max 15 Min Rain (In) Max 15 Min Precip Time Max 60 Min Rain (In) Max 60 Min Rain Time MinBV Day (V)
5/4/26 59.1 1640 47.3 0321 0.08 0.08 29.72 2.6 16.4 1856 N | 353 48.9 97 75 0.0 0.0 2.9 0.0 0.00 0.00 60 - 0.20 1247 0.01 2120 0.03 1259 0.04 1344 12.5
5/3/26 66.4 1424 47.2 0333 0.00 0.00 29.64 2.8 17.9 2116 W | 278 50.4 99 60 0.0 0.0 3.4 0.7 0.00 0.00 70 - - - - - - - - - 12.6
5/2/26 76.6 1427 47.0 0435 0.00 0.00 29.64 2.1 14.8 1451 S | 172 49.7 99 30 0.0 0.0 3.7 62.4 6.66 0.00 80 - - - - - - - - - 12.6
5/1/26 81.3 1720 43.8 0616 0.00 0.00 29.64 1.6 10.6 1504 S | 176 50.7 100 32 0.0 0.0 4.9 125.4 9.62 0.00 60 - - - - - - - - - 12.6
4/30/26 81.6 1605 39.2 0612 0.00 3.57 29.64 2.0 15.0 1601 N | 3 47.1 100 29 0.0 0.0 4.3 112.1 9.18 0.00 40 - - - - - - - - - 12.6
4/29/26 77.5 1514 38.6 0633 0.00 3.57 29.64 2.2 15.2 1724 N | 350 44.5 100 25 0.0 0.0 5.4 68.5 7.19 0.00 20 - - - - - - - - - 12.6
4/28/26 71.5 1616 36.4 0625 0.00 3.57 29.64 2.5 19.1 1744 N | 353 44.5 100 36 0.0 0.0 6.3 22.7 1.52 0.00 0 - - - - - - - - - 12.6
4/27/26 64.6 1549 43.3 0600 0.01 3.57 29.64 3.1 15.8 1700 WSW | 243 44.9 96 43 0.0 0.0 0.7 0.0 0.00 0.00 0 - 0.01 0310 0.01 0311 0.01 0325 0.01 0410 12.5
4/26/26 61.9 1503 46.5 0640 0.00 3.56 29.63 3.4 22.1 1748 WNW | 298 42.6 85 48 0.0 0.0 0.0 0.0 0.00 0.00 0 - - - - - - - - - 12.5
4/25/26 63.6 1425 42.2 0615 0.00 3.56 29.63 2.9 13.3 1929 NW | 305 45.9 100 59 0.0 0.0 6.9 0.0 0.00 0.00 0 - - - - - - - - - 12.6
4/24/26 72.3 1511 39.0 0629 0.00 3.56 29.63 2.2 13.8 1933 WSW | 258 46.2 100 25 0.0 0.0 8.0 31.6 3.22 0.00 0 - - - - - - - - - 12.6
4/23/26 70.7 1735 35.6 0617 0.00 3.56 29.63 2.0 12.3 1824 WNW | 293 43.2 100 32 0.0 0.0 8.0 18.1 0.26 0.00 0 - - - - - - - - - 12.6
4/22/26 61.9 1622 41.0 0058 0.04 3.56 29.63 2.2 13.9 1447 SE | 124 44.6 100 47 0.0 0.0 7.1 0.0 0.00 0.00 0 1.11 0.04 0342 0.01 0544 0.01 0558 0.02 0427 12.6
4/21/26 57.9 1625 41.8 2355 0.19 3.52 29.59 2.0 15.2 1538 NNW | 329 45.0 100 56 0.0 0.0 8.4 0.0 0.00 0.00 0 1.07 0.28 0910 0.01 1419 0.04 0946 0.11 1003 12.5
4/20/26 54.6 1404 43.3 0400 0.88 3.33 29.40 1.8 15.9 1050 SE | 146 45.8 99 50 0.0 0.0 15.9 0.0 0.00 0.00 0 0.88 0.46 1613 0.01 0040 0.06 1627 0.14 1659 12.5
4/19/26 69.4 1558 37.6 0656 0.00 2.45 28.52 1.8 17.2 1625 SSE | 158 36.0 100 16 0.0 0.0 4.3 8.0 0.00 0.00 0 - - - - - - - - - 12.5
4/18/26 73.4 1454 34.7 0622 0.00 2.45 28.52 1.9 13.4 1315 S | 174 41.1 100 21 0.0 0.0 4.4 39.2 4.76 0.00 0 - - - - - - - - - 12.6
4/17/26 71.8 1715 31.2 0638 0.00 2.45 28.52 2.3 11.8 1150 SSE | 162 33.1 92 19 0.8 0.0 0.0 23.6 1.42 0.00 10 - - - - - - - - - 12.6
4/16/26 66.3 1615 34.7 0653 0.00 2.45 28.52 3.1 14.1 1432 SE | 146 36.7 97 25 0.0 0.0 0.4 0.4 0.00 0.00 20 - - - - - - - - - 12.5
4/15/26 64.5 1421 41.1 0659 0.00 2.45 28.52 4.4 22.0 1551 WNW | 295 44.6 96 51 0.0 0.0 0.1 0.0 0.00 0.00 30 - - - - - - - - - 12.5
4/14/26 66.1 1552 36.3 0608 0.00 2.45 28.52 3.1 15.9 2035 NW | 323 43.4 100 48 0.0 0.0 6.6 0.3 0.00 0.00 40 - - - - - - - - - 12.6
4/13/26 63.6 1654 35.9 0524 0.00 2.45 28.52 2.8 16.6 1638 NW | 308 42.1 100 45 0.0 0.0 7.3 0.0 0.00 0.00 50 - - - - - - - - - 12.6
4/12/26 55.4 1723 42.8 0918 0.76 2.45 28.52 2.5 14.7 1425 NNW | 329 42.9 97 58 0.0 0.0 10.3 0.0 0.00 0.00 60 2.26 0.66 0902 0.01 1622 0.10 0916 0.22 1043 12.5
4/11/26 53.6 1403 42.0 2136 0.90 1.69 27.76 3.0 20.3 1406 SSE | 154 46.4 100 74 0.0 0.0 13.7 0.0 0.00 0.00 70 1.50 4.00 1620 0.04 1620 0.15 1630 0.28 1709 12.5
4/10/26 59.6 1307 46.0 0259 0.60 0.79 26.86 1.5 12.1 1247 SSE | 157 49.7 99 66 0.0 0.0 9.9 0.0 0.00 0.00 80 0.60 2.00 1406 0.02 1407 0.12 1416 0.14 1501 12.5
4/9/26 70.1 1522 44.4 0506 0.00 0.19 26.26 2.2 14.8 1733 SSE | 157 49.6 100 48 0.0 0.0 7.4 14.8 0.01 0.00 90 - - - - - - - - - 12.6
4/8/26 77.8 1535 42.6 0640 0.00 0.19 26.26 2.0 17.1 1637 W | 266 47.8 97 41 0.0 0.0 0.0 69.4 7.68 0.00 100 - - - - - - - - - 12.5
4/7/26 76.9 1446 39.8 0637 0.00 0.19 26.26 2.6 17.3 1628 NNW | 328 40.0 99 17 0.0 0.0 4.7 70.2 6.96 0.00 100 - - - - - - - - - 12.5
4/6/26 79.8 1533 36.9 0704 0.00 0.19 26.26 2.6 18.2 1500 SE | 142 42.8 99 15 0.0 0.0 3.2 90.0 7.81 0.00 100 - - - - - - - - - 12.5
4/5/26 79.6 1611 37.5 0502 0.00 0.19 26.26 1.7 11.2 1554 ESE | 117 41.0 98 19 0.0 0.0 0.0 88.4 7.34 0.00 90 - - - - - - - - - 12.5
Max 81.6 - 47.3 - 0.90 3.57 29.72 4.4 22.1 - - 50.7 100 75 0.8 0.0 15.9 125.4 9.62 0.00 - 2.26 4.00 - 0.04 - 0.15 - 0.28 - 12.6
Avg - - - - - - - 2.4 - - - 44.4 - - 0.0 0.0 - - 2.45 0.00 - 1.24 - - - - - - - - -
Min 53.6 - 31.2 - 0.00 0.00 26.26 1.5 10.6 - - 33.1 85 15 0.0 0.0 0.0 0.0 0.00 0.00 - 0.60 0.01 - 0.01 - 0.01 - 0.01 - 12.5
Total - - - - - - - - - - - - - - 0.8 0.0 - - 73.62 0.00 - - - - - - - - - - -